Weather Roundup
Issued by NWS

Home | Current Version | Previous Version | Graphics & Text | Print | Product List | Glossary Off
Versions: 1 2 3 4 5 6 7 8 9 10 11 12 13 14 15 16 17 18 19 20 21 22 23 24 25 26 27 28 29 30 31 32 33 34 35 36 37 38 39 40 41 42 43 44 45 46 47 48 49 50

764
NZUS93 KARX 162259
HRRWXR

CURRENT HOURLY OBSERVATIONS ACROSS
MUCH OF THE UPPER MISSISSIPPI VALLEY
NATIONAL WEATHER SERVICE LA CROSSE WI
500 PM CST MON JAN 16 2017


...SOUTHEAST MINNESOTA...


CITY           SKY/WX    TMP DP  RH WIND       PRES   REMARKS
ROCHESTER      FRZ RAIN  30  30 100 NE10      29.98F FOG     WCI  21
ROCHESTER/MAYO CLOUDY    31  31 100 NE6       29.99F WCI  25
WINONA         MIX PCPN  32  30  93 CALM      30.04F
AUSTIN         MIX PCPN  30  28  93 NE8       29.96F WCI  23
ALBERT LEA     MIX PCPN  32  32 100 NE7       29.96F WCI  26
DODGE CENTER   MIX PCPN  30  30 100 NE7       29.98F WCI  23
PRESTON        MIX PCPN  30  29  95 NE6       29.97F WCI  24
OWATONNA       LGT RAIN  32  30  93 E6        29.98F WCI  26
FARIBAULT      LGT RAIN  30  28  93 NE5       30.00F WCI  25
$$

...ELSEWHERE IN MINNESOTA...


CITY           SKY/WX    TMP DP  RH WIND       PRES   REMARKS
MINNEAPOLIS    CLOUDY    32  22  66 NE7       30.04F WCI  26
INTNL FALLS    CLOUDY    24  14  65 NE7       30.02S WCI  16
DULUTH         CLEAR     30  18  60 S5        30.04R WCI  25
RED WING       MIX PCPN  30  27  86 E3        30.03F
REDWOOD FALLS  CLOUDY    31  27  85 E5        30.01S FOG     WCI  26
MANKATO        LGT SNOW  30  29  96 NE8       30.00S FOG     WCI  22
WORTHINGTON    LGT SNOW  30  28  93 N10       29.96  FOG     WCI  21
FAIRMONT       MIX PCPN  31  30  96 NE8       29.97S FOG     WCI  23
$$

...SOUTHWEST WISCONSIN...


CITY           SKY/WX    TMP DP  RH WIND       PRES   REMARKS
LA CROSSE      RAIN      36  31  82 NW3       30.03S
PRAIRIE DU CHI LGT RAIN  33  33  96 E6        29.98F WCI  28
BOSCOBEL       LGT RAIN  34  32  92 NE7       30.00F FOG     WCI  28
LONE ROCK      LGT RAIN  34  31  88 E10       30.02F FOG     WCI  26
PLATTEVILLE    CLOUDY    33  33 100 E13       29.97F WCI  24
FORT MC COY    MIX PCPN  32  31  98 E6        30.05S WCI  26
CAMP DOUGLAS   LGT RAIN  32  32 100 E6        30.04S WCI  26
MAUSTON-NEW LI LGT RAIN  32  32  99 E3        30.04F
VIROQUA        CLOUDY    32  32 100 E8        29.98F WCI  25
WIS DELLS      MIX PCPN  32  31  98 E8        30.04F WCI  25
$$

...ELSEWHERE IN WISCONSIN...


CITY           SKY/WX    TMP DP  RH WIND       PRES   REMARKS
MILWAUKEE      RAIN      36  33  89 E12       30.09F FOG     WCI  28
MADISON        LGT RAIN  33  32  96 E9        30.03F FOG     WCI  25
GREEN BAY      LGT RAIN  33  26  75 CALM      30.12F
EAU CLAIRE     NOT AVBL
BLACK RVR FLS  MIX PCPN  32  32 100 NE7       30.04F WCI  26
MEDFORD        CLOUDY    30  17  60 CALM      30.06S
WAUSAU         CLOUDY    32  18  56 E3        30.07F
WIS RAPIDS     MIX PCPN  30  29  96 E7        30.07F FOG     WCI  23
MARSHFIELD     MIX PCPN  29  21  72 E9        30.04F WCI  20
RICE LAKE      CLOUDY    24  18  77 CALM      30.07F
$$

...NORTHEAST IOWA...


CITY           SKY/WX    TMP DP  RH WIND       PRES   REMARKS
WATERLOO       CLOUDY    33  32  96 E7        29.92F FOG     WCI  27
DUBUQUE        MIX PCPN  33  33 100 CALM      29.95S FOG
DECORAH        CLOUDY    32  32 100 NE9       29.94F FOG     WCI  24
MASON CITY     CLOUDY    32  31  96 NE10      29.95R WCI  24
CHARLES CITY   LGT RAIN  34  34 100 MISG      29.94F
OELWEIN        CLOUDY    34  34 100 E10       29.92F FOG     WCI  26
$$

...ELSEWHERE IN IOWA...


CITY           SKY/WX    TMP DP  RH WIND       PRES   REMARKS
DES MOINES     DRZL/FOG  34  33  96 NE6       29.89S VSB 1/4 WCI  29
IOWA CITY      CLOUDY    37  36  96 E6        29.94S FOG     WCI  32
FORT DODGE     CLOUDY    32  30  93 CALM      29.93S
MARSHALLTOWN   CLOUDY    33  33 100 E8        29.89S FOG     WCI  26
CEDAR RAPIDS   CLOUDY    34  34 100 E9        29.91S FOG     WCI  27
$$

...NORTHERN ILLINOIS...


CITY           SKY/WX    TMP DP  RH WIND       PRES   REMARKS
CHICAGO-OHARE  LGT RAIN  36  34  92 E8        30.05S FOG     WCI  30
CHICAGO-MIDWAY LGT RAIN  36  35  96 E7        30.05F VSB 1   WCI  30
MOLINE         CLOUDY    37  35  92 E9        29.95R WCI  30
ROCKFORD       LGT RAIN  36  34  92 E8        30.01F FOG     WCI  30
PEORIA         HVY RAIN  42  42 100 SE6       29.96S VSB 3/4
$$

NOTE: "FAIR" INDICATES FEW OR NO CLOUDS BELOW 12,000 FEET WITH NO
SIGNIFICANT WEATHER AND/OR OBSTRUCTIONS TO VISIBILITY. WIND
SPEEDS ARE IN MILES-PER-HOUR.




USA.gov is the U.S. government's official web portal to all federal, state and local government web resources and services.